Welcome to Northern Hawkes Bay. New Zealand.
PWS Header
      nz Flag



Hit Counter


W3C Valid W3C Valid logo


    Wairoa

Select any of the Stations below to visit their websites.










Historic Data from Weather Underground
Select the location of interest below. Wairoa is the default. Please have patience, this Data is slow to load in.
Northern Hawkes Bay Historical Data
Daily Summary for May 28, 2017 Units:  English    Metric   Both
« Previous Day
Next Day »
Daily Weekly Monthly Yearly Custom
  High: Low: Average:
Temperature: 57.7 °F 54.5 °F 55.6 °F
Dew Point: 56.8 °F 53.4 °F 54.7 °F
Humidity: 99% 93% 97%
Wind Speed: 18.3mph 0.7mph 8.1mph
Wind Gust: 23.5mph - -
Wind- - WSW
Pressure: 30.1 in 29.9 in -
Precipitation: 1.32 in    
Historical Graphs
 
 
Tabular Data for May 28, 2017
Time Temperature Dew Point Pressure Wind Wind Speed Wind Gust Humidity Rainfall Rate (Hourly) solar
00:04 57.6 °F 56.7 °F 29.9 in SW 6.9 mph 13 mph 97% 0 in 0 W/m2
00:09 57.6 °F 56.7 °F 29.9 in SW 9.8 mph 17.4 mph 97% 0 in 0 W/m2
00:14 57.6 °F 56.7 °F 29.9 in SW 9.2 mph 17.4 mph 97% 0 in 0 W/m2
00:30 57.7 °F 56.8 °F 29.9 in SW 9.2 mph 17.4 mph 97% 0 in 0 W/m2
00:35 57.7 °F 56.8 °F 29.9 in SW 13.6 mph 17.4 mph 97% 0 in 0 W/m2
00:40 57.7 °F 56.8 °F 29.9 in SW 12.1 mph 15.9 mph 97% 0 in 0 W/m2
00:45 57.6 °F 56.7 °F 29.9 in SW 9.2 mph 17.4 mph 97% 0 in 0 W/m2
00:50 57.6 °F 56.7 °F 29.9 in SW 9.2 mph 17.4 mph 97% 0 in 0 W/m2
00:55 57.4 °F 56.5 °F 29.9 in SW 8.3 mph 17.4 mph 97% 0 in 0 W/m2
01:00 57.4 °F 56.5 °F 29.9 in SW 12.1 mph 19.7 mph 97% 0 in 0 W/m2
01:05 57.2 °F 56.1 °F 29.9 in SW 9.2 mph 19.7 mph 96% 0 in 0 W/m2
01:10 57.2 °F 56.1 °F 29.9 in SSW 8.3 mph 17.4 mph 96% 0 in 0 W/m2
01:15 57 °F 56.1 °F 29.9 in SSW 10.7 mph 17.4 mph 97% 0 in 0 W/m2
01:20 57 °F 56.1 °F 29.9 in SW 12.1 mph 19 mph 97% 0 in 0 W/m2
01:25 57 °F 56.1 °F 29.9 in SW 12.1 mph 20.6 mph 97% 0 in 0 W/m2
01:30 57.2 °F 55.8 °F 29.9 in SW 13.6 mph 20.6 mph 95% 0 in 0 W/m2
01:35 57.2 °F 55.8 °F 29.9 in SW 9.8 mph 20.6 mph 95% 0 in 0 W/m2
01:40 57 °F 55.9 °F 29.9 in SW 11.4 mph 20.6 mph 96% 0 in 0 W/m2
01:45 56.8 °F 55.8 °F 29.9 in SW 10.7 mph 17.4 mph 96% 0 in 0 W/m2
01:50 56.8 °F 55.8 °F 29.9 in SW 9.2 mph 17.4 mph 96% 0 in 0 W/m2
01:55 56.7 °F 55.8 °F 29.9 in SW 8.3 mph 17.4 mph 97% 0 in 0 W/m2
02:00 56.7 °F 55.8 °F 29.9 in SW 6.9 mph 14.5 mph 97% 0 in 0 W/m2
02:05 56.5 °F 55.6 °F 29.9 in SW 9.2 mph 15.2 mph 97% 0 in 0 W/m2
02:10 56.3 °F 55.6 °F 29.9 in West 7.6 mph 15.2 mph 97% 0 in 0 W/m2
02:15 56.3 °F 55.6 °F 29.9 in West 7.6 mph 15.9 mph 97% 0 in 0 W/m2
02:20 56.3 °F 55.6 °F 29.9 in WSW 6.9 mph 15.9 mph 97% 0 in 0 W/m2
02:25 56.3 °F 55.6 °F 29.9 in WSW 9.2 mph 14.5 mph 97% 0 in 0 W/m2
02:30 56.1 °F 55.2 °F 29.9 in WSW 7.6 mph 15.2 mph 97% 0 in 0 W/m2
02:35 56.1 °F 55 °F 29.9 in WSW 7.6 mph 15.2 mph 96% 0 in 0 W/m2
02:40 55.9 °F 54.9 °F 29.9 in SW 6.9 mph 14.5 mph 96% 0 in 0 W/m2
02:45 55.9 °F 54.9 °F 29.9 in WSW 7.6 mph 14.5 mph 96% 0 in 0 W/m2
02:50 55.9 °F 54.9 °F 29.9 in WSW 6.9 mph 15.9 mph 96% 0 in 0 W/m2
02:55 55.9 °F 54.9 °F 29.9 in West 11.4 mph 15.9 mph 96% 0 in 0 W/m2
03:00 55.9 °F 54.9 °F 29.9 in West 6.9 mph 14.5 mph 96% 0 in 0 W/m2
03:06 55.8 °F 54.7 °F 29.9 in WSW 9.2 mph 13.6 mph 96% 0 in 0 W/m2
03:11 55.9 °F 54.9 °F 29.9 in WSW 6.9 mph 11.4 mph 96% 0 in 0 W/m2
03:16 55.8 °F 54.3 °F 29.9 in West 5.4 mph 12.1 mph 95% 0 in 0 W/m2
03:21 55.6 °F 54.1 °F 29.9 in WSW 8.3 mph 14.5 mph 95% 0 in 0 W/m2
03:26 55.4 °F 54 °F 29.9 in WSW 6.9 mph 14.5 mph 95% 0 in 0 W/m2
03:31 55.2 °F 54.1 °F 29.9 in WSW 8.3 mph 14.5 mph 96% 0 in 0 W/m2
03:36 55.2 °F 54.1 °F 29.9 in WSW 9.2 mph 13 mph 96% 0 in 0 W/m2
03:41 55.4 °F 54.3 °F 29.9 in WSW 8.3 mph 12.1 mph 96% 0 in 0 W/m2
03:46 55.4 °F 54 °F 29.9 in WSW 4.5 mph 13 mph 95% 0 in 0 W/m2
03:51 55.4 °F 54 °F 29.9 in WSW 5.4 mph 13 mph 95% 0 in 0 W/m2
03:56 55.4 °F 54 °F 29.9 in WSW 6.9 mph 13 mph 95% 0 in 0 W/m2
04:01 55.6 °F 54.1 °F 29.9 in WSW 3.1 mph 13 mph 95% 0 in 0 W/m2
04:06 55.6 °F 54.1 °F 29.9 in WSW 4.5 mph 11.4 mph 95% 0 in 0 W/m2
04:11 55.6 °F 54.1 °F 29.9 in West 3.8 mph 9.8 mph 95% 0 in 0 W/m2
04:16 55.6 °F 54 °F 29.9 in WSW 4.5 mph 9.8 mph 94% 0 in 0 W/m2
04:21 55.6 °F 54 °F 29.9 in West 4.5 mph 11.4 mph 94% 0 in 0 W/m2
04:26 55.4 °F 53.8 °F 29.9 in West 3.8 mph 11.4 mph 94% 0 in 0 W/m2
04:31 55.6 °F 54 °F 29.9 in West 6 mph 8.3 mph 94% 0 in 0 W/m2
04:36 55.6 °F 54 °F 29.9 in West 3.1 mph 8.3 mph 94% 0 in 0 W/m2
04:41 55.6 °F 54 °F 29.9 in West 2.2 mph 7.6 mph 94% 0 in 0 W/m2
04:46 55.6 °F 54 °F 29.9 in West 4.5 mph 8.3 mph 94% 0 in 0 W/m2
04:51 55.6 °F 54 °F 29.9 in West 3.8 mph 9.8 mph 94% 0 in 0 W/m2
04:56 55.6 °F 54 °F 29.9 in WSW 3.1 mph 9.8 mph 94% 0 in 0 W/m2
05:01 55.6 °F 54 °F 29.9 in WSW 3.8 mph 9.8 mph 94% 0 in 0 W/m2
05:06 55.4 °F 53.8 °F 29.9 in West 4.5 mph 9.8 mph 94% 0 in 0 W/m2
05:11 55.4 °F 53.8 °F 29.9 in West 9.2 mph 12.1 mph 94% 0 in 0 W/m2
05:16 55.4 °F 53.8 °F 29.9 in West 3.1 mph 12.1 mph 94% 0 in 0 W/m2
05:21 55.2 °F 53.4 °F 29.9 in WSW 4.5 mph 12.1 mph 94% 0 in 0 W/m2
05:31 55.2 °F 53.8 °F 29.9 in West 3.1 mph 13 mph 95% 0 in 0 W/m2
05:36 55 °F 53.6 °F 29.9 in West 3.1 mph 13 mph 95% 0 in 0 W/m2
05:41 55 °F 53.6 °F 29.9 in West 4.5 mph 6 mph 95% 0 in 0 W/m2
05:46 55 °F 54 °F 29.9 in WSW 6.9 mph 9.2 mph 96% 0 in 0 W/m2
05:51 55 °F 54 °F 29.9 in WSW 4.5 mph 11.4 mph 96% 0 in 0 W/m2
05:56 55 °F 54 °F 29.9 in WSW 4.5 mph 11.4 mph 96% 0 in 0 W/m2
06:01 55 °F 54 °F 29.9 in WSW 3.8 mph 9.8 mph 96% 0 in 0 W/m2
06:06 55 °F 54 °F 29.9 in West 7.6 mph 10.7 mph 96% 0 in 0 W/m2
06:11 55 °F 54 °F 29.9 in West 4.5 mph 10.7 mph 96% 0 in 0 W/m2
06:16 55 °F 54.1 °F 29.9 in West 3.8 mph 10.7 mph 97% 0 in 0 W/m2
06:21 55.2 °F 54.3 °F 29.9 in WSW 7.6 mph 13.6 mph 97% 0 in 0 W/m2
06:26 55.4 °F 54.3 °F 29.9 in WSW 4.5 mph 13.6 mph 96% 0 in 0 W/m2
06:31 55.4 °F 54.3 °F 29.9 in WSW 3.8 mph 13.6 mph 96% 0 in 0 W/m2
06:36 55.4 °F 54.3 °F 29.9 in West 6 mph 10.7 mph 96% 0 in 0 W/m2
06:41 55.4 °F 54.3 °F 29.9 in West 5.4 mph 10.7 mph 96% 0 in 0 W/m2
06:46 55.4 °F 54 °F 29.9 in West 3.8 mph 12.1 mph 95% 0 in 0 W/m2
06:51 55.4 °F 54 °F 29.9 in West 9.2 mph 15.9 mph 95% 0 in 0 W/m2
06:56 55.4 °F 54 °F 29.9 in West 4.5 mph 15.9 mph 95% 0 in 0 W/m2
07:01 55.4 °F 54 °F 29.9 in WSW 7.6 mph 15.9 mph 95% 0 in 0 W/m2
07:06 55.4 °F 54 °F 29.9 in WSW 4.5 mph 12.1 mph 95% 0 in 0 W/m2
07:11 55.6 °F 54.1 °F 29.9 in WSW 4.5 mph 13 mph 95% 0 in 0 W/m2
07:16 55.6 °F 54.1 °F 29.9 in West 3.8 mph 13 mph 95% 0 in 1 W/m2
07:21 55.6 °F 54.1 °F 30 in West 10.7 mph 14.5 mph 95% 0 in 2 W/m2
07:26 55.6 °F 54.1 °F 30 in WSW 6.9 mph 14.5 mph 95% 0 in 3 W/m2
07:31 55.8 °F 54.3 °F 29.9 in WSW 5.4 mph 14.5 mph 95% 0 in 6 W/m2
07:36 55.8 °F 54.3 °F 30 in West 9.8 mph 15.2 mph 95% 0 in 9 W/m2
07:41 55.9 °F 54.5 °F 30 in WSW 5.4 mph 15.2 mph 95% 0 in 12 W/m2
07:46 55.9 °F 54.5 °F 30 in SW 6.9 mph 15.2 mph 95% 0 in 13 W/m2
07:51 55.9 °F 54.5 °F 30 in WSW 9.8 mph 13 mph 95% 0 in 19 W/m2
07:56 55.9 °F 54.5 °F 30 in WSW 5.4 mph 13.6 mph 95% 0 in 23 W/m2
08:01 55.9 °F 54.5 °F 30 in WSW 8.3 mph 16.8 mph 95% 0 in 27 W/m2
08:06 56.1 °F 54.7 °F 30 in WSW 10.7 mph 16.8 mph 95% 0 in 30 W/m2
08:11 56.1 °F 54.3 °F 30 in WSW 10.7 mph 17.4 mph 94% 0 in 33 W/m2
08:16 56.3 °F 54.7 °F 30 in WSW 7.6 mph 22.1 mph 94% 0 in 31 W/m2
08:21 56.3 °F 54.3 °F 30 in WSW 7.6 mph 22.1 mph 93% 0 in 35 W/m2
08:26 55.9 °F 54 °F 30 in West 8.3 mph 15.9 mph 93% 0 in 30 W/m2
08:31 55.8 °F 54.1 °F 30 in West 7.6 mph 15.9 mph 94% 0 in 33 W/m2
08:36 55.8 °F 54.3 °F 30 in West 5.4 mph 15.9 mph 95% 0 in 23 W/m2
08:41 55.6 °F 54.1 °F 30 in WSW 9.2 mph 19 mph 95% 0 in 23 W/m2
08:46 55.6 °F 54.1 °F 30 in West 6.9 mph 19 mph 95% 0 in 28 W/m2
08:51 55.6 °F 54.5 °F 30 in West 8.3 mph 14.5 mph 96% 0 in 27 W/m2
08:56 55.6 °F 54.5 °F 30 in West 9.8 mph 17.4 mph 96% 0.01 in 48 W/m2
09:01 55.6 °F 54.5 °F 30 in West 6 mph 17.4 mph 96% 0.01 in 52 W/m2
09:06 55.6 °F 54.5 °F 30 in West 6 mph 17.4 mph 96% 0.01 in 66 W/m2
09:11 55.8 °F 54.7 °F 30 in West 3.8 mph 13 mph 96% 0.01 in 56 W/m2
09:16 55.8 °F 54.7 °F 30 in West 3.8 mph 13 mph 96% 0.01 in 71 W/m2
09:21 55.9 °F 54.9 °F 30 in WNW 8.3 mph 13 mph 96% 0.01 in 77 W/m2
09:26 55.8 °F 54.7 °F 30 in West 6 mph 14.5 mph 96% 0.01 in 83 W/m2
09:31 55.8 °F 54.9 °F 30 in West 5.4 mph 14.5 mph 97% 0.01 in 94 W/m2
09:36 55.9 °F 55 °F 30 in WSW 3.8 mph 13 mph 97% 0.01 in 127 W/m2
09:41 55.9 °F 55 °F 30 in West 8.3 mph 13.6 mph 97% 0.01 in 140 W/m2
09:46 56.1 °F 55.2 °F 30 in WNW 4.5 mph 13.6 mph 97% 0.01 in 146 W/m2
09:51 55.9 °F 55 °F 30 in WSW 9.2 mph 14.5 mph 97% 0.04 in 109 W/m2
09:56 55.6 °F 54.9 °F 30 in WSW 5.4 mph 14.5 mph 97% 0.05 in 82 W/m2
10:01 55.6 °F 54.9 °F 30 in WSW 5.4 mph 13.6 mph 97% 0.06 in 43 W/m2
10:06 55.4 °F 54.7 °F 30 in West 5.4 mph 8.3 mph 97% 0.07 in 43 W/m2
10:11 55.2 °F 54.3 °F 30 in West 3.8 mph 11.4 mph 97% 0.08 in 42 W/m2
10:16 55.2 °F 54.3 °F 30 in WSW 11.4 mph 15.9 mph 97% 0.08 in 34 W/m2
10:21 55.2 °F 54.3 °F 30 in WSW 9.2 mph 15.9 mph 97% 0.08 in 31 W/m2
10:26 55.2 °F 54.3 °F 30 in WSW 6.9 mph 15.9 mph 97% 0.09 in 25 W/m2
10:31 55 °F 54.1 °F 30 in WSW 4.5 mph 15.2 mph 97% 0.09 in 23 W/m2
10:36 55 °F 54.1 °F 30 in SW 3.1 mph 15.2 mph 97% 0.09 in 22 W/m2
10:41 55 °F 54.1 °F 30 in WSW 13.6 mph 15.2 mph 97% 0.12 in 21 W/m2
10:42 55 °F 54.1 °F 30 in WSW 6.9 mph 15.2 mph 97% 0.12 in 20 W/m2
10:47 54.9 °F 54 °F 30 in WSW 10.7 mph 23.5 mph 97% 0.14 in 18 W/m2
10:52 54.9 °F 54 °F 30 in WSW 6.9 mph 23.5 mph 97% 0.12 in 15 W/m2
10:57 54.7 °F 54 °F 30 in WSW 12.1 mph 18.3 mph 97% 0.14 in 15 W/m2
11:02 54.7 °F 54 °F 30 in West 7.6 mph 18.3 mph 97% 0.14 in 18 W/m2
11:07 54.7 °F 54 °F 30 in West 6.9 mph 19.7 mph 97% 0.15 in 22 W/m2
11:12 54.7 °F 54 °F 30 in West 7.6 mph 19.7 mph 97% 0.15 in 25 W/m2
11:17 54.7 °F 54 °F 30 in WSW 9.8 mph 18.3 mph 97% 0.17 in 24 W/m2
11:22 54.7 °F 54 °F 30 in WSW 5.4 mph 19.7 mph 97% 0.18 in 23 W/m2
11:27 54.7 °F 54 °F 30 in West 9.2 mph 19.7 mph 97% 0.21 in 29 W/m2
11:32 54.7 °F 54 °F 30 in West 7.6 mph 18.3 mph 97% 0.26 in 41 W/m2
11:37 54.7 °F 54 °F 30 in West 9.8 mph 18.3 mph 97% 0.32 in 47 W/m2
11:42 54.7 °F 54 °F 30 in WSW 9.2 mph 18.3 mph 97% 0.33 in 34 W/m2
11:47 54.7 °F 54 °F 30 in WSW 11.4 mph 18.3 mph 97% 0.37 in 24 W/m2
11:52 54.5 °F 53.8 °F 30 in West 7.6 mph 16.8 mph 97% 0.41 in 21 W/m2
11:57 54.5 °F 53.8 °F 30 in West 6.9 mph 15.9 mph 97% 0.38 in 14 W/m2
12:02 54.7 °F 54 °F 30 in WSW 9.8 mph 15.9 mph 97% 0.38 in 15 W/m2
12:07 54.9 °F 54 °F 30 in WSW 9.8 mph 15.9 mph 97% 0.35 in 21 W/m2
12:12 55.2 °F 54.3 °F 30 in West 6.9 mph 15.9 mph 97% 0.35 in 16 W/m2
12:17 55.2 °F 54.3 °F 30 in West 6.9 mph 17.4 mph 97% 0.37 in 18 W/m2
12:22 55.2 °F 54.3 °F 30 in WSW 11.4 mph 19.7 mph 97% 0.37 in 29 W/m2
12:27 55.2 °F 54.3 °F 30 in West 13 mph 19.7 mph 97% 0.34 in 35 W/m2
12:32 55.2 °F 54.3 °F 30 in WSW 9.8 mph 15.9 mph 97% 0.28 in 45 W/m2
12:37 55.4 °F 55 °F 30 in SW 9.8 mph 19 mph 99% 0.24 in 17 W/m2
12:42 55.6 °F 55.2 °F 30 in WSW 6 mph 19 mph 99% 0.22 in 22 W/m2
12:47 55.6 °F 55.2 °F 30 in WSW 11.4 mph 18.3 mph 99% 0.19 in 15 W/m2
12:52 55.4 °F 55 °F 30 in WSW 11.4 mph 18.3 mph 99% 0.2 in 21 W/m2
12:57 55.4 °F 55 °F 30 in West 13 mph 19 mph 99% 0.22 in 16 W/m2
13:02 55.2 °F 54.3 °F 30 in WSW 13 mph 19 mph 97% 0.22 in 20 W/m2
13:07 55.2 °F 54.3 °F 30 in WSW 18.3 mph 23.5 mph 97% 0.24 in 14 W/m2
13:12 55.4 °F 55 °F 30 in West 15.9 mph 23.5 mph 99% 0.24 in 22 W/m2
13:17 55.4 °F 55 °F 30 in West 9.2 mph 23.5 mph 99% 0.22 in 25 W/m2
13:22 55.4 °F 55 °F 30 in WSW 12.1 mph 23.5 mph 99% 0.2 in 15 W/m2
13:27 55.6 °F 55.2 °F 30 in WSW 9.8 mph 19.7 mph 99% 0.2 in 23 W/m2
13:32 55.6 °F 55.2 °F 30 in WSW 12.1 mph 19.7 mph 99% 0.19 in 16 W/m2
13:37 55.6 °F 55.2 °F 30 in WSW 14.5 mph 19.7 mph 99% 0.18 in 16 W/m2
13:42 55.6 °F 55.2 °F 30 in WSW 8.3 mph 19.7 mph 99% 0.17 in 16 W/m2
13:47 55.6 °F 55.2 °F 30 in WSW 6.9 mph 16.8 mph 99% 0.12 in 17 W/m2
13:52 55.6 °F 55.2 °F 30 in WSW 8.3 mph 16.8 mph 99% 0.09 in 26 W/m2
13:57 55.6 °F 55.2 °F 30 in West 7.6 mph 17.4 mph 99% 0.06 in 15 W/m2
14:02 55.6 °F 55.2 °F 30 in WNW 9.2 mph 17.4 mph 99% 0.02 in 16 W/m2
14:07 55.4 °F 55 °F 30 in West 9.8 mph 14.5 mph 99% 0.02 in 18 W/m2
14:12 55.4 °F 55 °F 30 in WSW 10.7 mph 14.5 mph 99% 0.01 in 22 W/m2
14:17 55.4 °F 55 °F 30 in WSW 6.9 mph 16.8 mph 99% 0.01 in 22 W/m2
14:22 55.4 °F 55 °F 30 in West 9.8 mph 16.8 mph 99% 0.01 in 24 W/m2
14:27 55.4 °F 55 °F 30 in West 7.6 mph 15.9 mph 99% 0 in 26 W/m2
14:32 55.4 °F 55 °F 30 in WSW 9.8 mph 13 mph 99% 0 in 41 W/m2
14:37 55.6 °F 55.2 °F 30 in WSW 5.4 mph 16.8 mph 99% 0 in 45 W/m2
14:42 55.6 °F 55.2 °F 30 in WSW 9.2 mph 16.8 mph 99% 0.01 in 36 W/m2
14:47 55.6 °F 55.2 °F 30 in West 6.9 mph 15.2 mph 99% 0.01 in 49 W/m2
14:52 55.8 °F 55.6 °F 30 in WSW 9.2 mph 16.8 mph 99% 0.01 in 55 W/m2
14:57 55.8 °F 55.6 °F 30 in West 4.5 mph 16.8 mph 99% 0.01 in 61 W/m2
15:02 55.8 °F 55.6 °F 30 in West 10.7 mph 16.8 mph 99% 0.01 in 32 W/m2
15:07 55.8 °F 55.6 °F 30 in WSW 6.9 mph 15.2 mph 99% 0.02 in 72 W/m2
15:12 55.8 °F 55.6 °F 30 in WSW 7.6 mph 13 mph 99% 0.02 in 93 W/m2
15:17 55.9 °F 55.8 °F 30 in WSW 7.6 mph 13 mph 99% 0.02 in 91 W/m2
15:22 55.9 °F 55.8 °F 30 in WSW 6.9 mph 13 mph 99% 0.02 in 86 W/m2
15:27 56.1 °F 55.9 °F 30 in WSW 3.1 mph 11.4 mph 99% 0.02 in 62 W/m2
15:32 56.1 °F 55.9 °F 30 in WSW 7.6 mph 13.6 mph 99% 0.02 in 70 W/m2
15:37 55.9 °F 55.8 °F 30 in WSW 5.4 mph 13.6 mph 99% 0.02 in 73 W/m2
15:42 55.9 °F 55.8 °F 30 in WSW 7.6 mph 13.6 mph 99% 0.01 in 52 W/m2
15:47 55.9 °F 55.8 °F 30 in WSW 10.7 mph 15.2 mph 99% 0.01 in 34 W/m2
15:52 55.9 °F 55.8 °F 30 in WSW 5.4 mph 15.2 mph 99% 0.01 in 17 W/m2
15:57 55.9 °F 55.8 °F 30 in WSW 6 mph 15.2 mph 99% 0.01 in 18 W/m2
16:02 55.8 °F 55.6 °F 30 in West 5.4 mph 15.9 mph 99% 0.02 in 20 W/m2
16:07 55.8 °F 55.6 °F 30 in WSW 9.2 mph 15.9 mph 99% 0.02 in 19 W/m2
16:12 55.6 °F 55.2 °F 30 in WSW 5.4 mph 14.5 mph 99% 0.04 in 12 W/m2
16:17 55.6 °F 55.2 °F 30 in WSW 4.5 mph 17.4 mph 99% 0.04 in 18 W/m2
16:22 55.8 °F 55.6 °F 30 in WSW 6.9 mph 17.4 mph 99% 0.05 in 13 W/m2
16:27 55.6 °F 55.2 °F 30 in WSW 12.1 mph 19.7 mph 99% 0.05 in 23 W/m2
16:33 55.6 °F 55.2 °F 30 in WSW 8.3 mph 19.7 mph 99% 0.05 in 16 W/m2
16:38 55.6 °F 55.2 °F 30 in WSW 9.2 mph 18.3 mph 99% 0.07 in 10 W/m2
16:43 55.4 °F 55 °F 30 in WSW 9.2 mph 14.5 mph 99% 0.07 in 6 W/m2
16:48 55.4 °F 55 °F 30 in West 6.9 mph 13.6 mph 99% 0.07 in 3 W/m2
16:53 55.4 °F 55 °F 30 in West 7.6 mph 16.8 mph 99% 0.07 in 3 W/m2
16:58 55.6 °F 55.2 °F 30 in WSW 9.2 mph 16.8 mph 99% 0.07 in 1 W/m2
17:04 55.6 °F 55.2 °F 30 in West 11.4 mph 15.9 mph 99% 0.05 in 0 W/m2
17:09 55.6 °F 55.2 °F 30 in West 7.6 mph 15.9 mph 99% 0.04 in 0 W/m2
17:14 55.6 °F 55.2 °F 30 in WSW 8.3 mph 18.3 mph 99% 0.04 in 0 W/m2
17:19 55.6 °F 55.2 °F 30 in WSW 11.4 mph 18.3 mph 99% 0.02 in 0 W/m2
17:24 55.6 °F 55.2 °F 30 in West 9.2 mph 16.8 mph 99% 0.02 in 0 W/m2
17:29 55.6 °F 55.2 °F 30 in West 10.7 mph 16.8 mph 99% 0.02 in 0 W/m2
17:34 55.8 °F 55.6 °F 30 in WSW 10.7 mph 19 mph 99% 0.02 in 0 W/m2
17:39 55.9 °F 55.8 °F 30 in WSW 7.6 mph 19 mph 99% 0.01 in 0 W/m2
17:44 55.9 °F 55.8 °F 30 in WSW 10.7 mph 19 mph 99% 0.01 in 0 W/m2
17:49 55.8 °F 55.6 °F 30 in WSW 9.8 mph 17.4 mph 99% 0.02 in 0 W/m2
17:54 55.8 °F 55.6 °F 30 in WSW 9.2 mph 17.4 mph 99% 0.02 in 0 W/m2
17:59 55.6 °F 55.2 °F 30 in WSW 11.4 mph 18.3 mph 99% 0.02 in 0 W/m2
18:04 55.6 °F 55.2 °F 30 in WSW 12.1 mph 18.3 mph 99% 0.02 in 0 W/m2
18:09 55.6 °F 55.2 °F 30 in WSW 13 mph 19.7 mph 99% 0.02 in 0 W/m2
18:14 55.6 °F 55.2 °F 30 in WSW 13 mph 21.3 mph 99% 0.02 in 0 W/m2
18:19 55.8 °F 55.2 °F 30 in WSW 8.3 mph 21.3 mph 98% 0.02 in 0 W/m2
18:24 55.8 °F 55.2 °F 30 in SW 10.7 mph 18.3 mph 98% 0.02 in 0 W/m2
18:29 55.6 °F 55 °F 30 in WSW 12.1 mph 20.6 mph 98% 0.02 in 0 W/m2
18:34 55.4 °F 54.9 °F 30 in WSW 12.1 mph 20.6 mph 98% 0.01 in 0 W/m2
18:39 55 °F 54.1 °F 30 in SW 14.5 mph 19.7 mph 97% 0.01 in 0 W/m2
18:44 55.2 °F 54.3 °F 30 in SW 9.8 mph 19.7 mph 97% 0.01 in 0 W/m2
18:49 55 °F 54.1 °F 30 in SW 12.1 mph 19.7 mph 97% 0 in 0 W/m2
18:54 54.9 °F 54 °F 30 in WSW 10.7 mph 22.8 mph 97% 0 in 0 W/m2
18:59 54.9 °F 54 °F 30 in WSW 9.2 mph 22.8 mph 97% 0 in 0 W/m2
19:04 54.9 °F 54 °F 30 in WSW 10.7 mph 21.3 mph 97% 0 in 0 W/m2
19:09 54.9 °F 54 °F 30 in West 14.5 mph 18.3 mph 97% 0 in 0 W/m2
19:14 55 °F 54.1 °F 30 in SW 6.9 mph 18.3 mph 97% 0 in 0 W/m2
19:19 55 °F 54.1 °F 30 in SW 8.3 mph 16.8 mph 97% 0 in 0 W/m2
19:24 55.2 °F 54.3 °F 30 in WSW 8.3 mph 19.7 mph 97% 0 in 0 W/m2
19:29 55.2 °F 54.3 °F 30 in WSW 9.8 mph 19.7 mph 97% 0 in 0 W/m2
19:34 55.2 °F 54.3 °F 30 in WSW 10.7 mph 18.3 mph 97% 0 in 0 W/m2
19:39 55.2 °F 54.3 °F 30 in WSW 6.9 mph 21.3 mph 97% 0.01 in 0 W/m2
19:44 55 °F 54.1 °F 30 in WSW 9.8 mph 21.3 mph 97% 0.02 in 0 W/m2
19:49 55.2 °F 54.3 °F 30 in WSW 11.4 mph 18.3 mph 97% 0.02 in 0 W/m2
19:54 55.2 °F 54.3 °F 30 in WSW 9.8 mph 20.6 mph 97% 0.04 in 0 W/m2
19:59 55.2 °F 54.3 °F 30 in WSW 12.1 mph 20.6 mph 97% 0.04 in 0 W/m2
20:04 55.2 °F 54.3 °F 30 in WSW 11.4 mph 20.6 mph 97% 0.04 in 0 W/m2
20:09 55.4 °F 55 °F 30 in WSW 10.7 mph 20.6 mph 99% 0.04 in 0 W/m2
20:14 55.2 °F 54.3 °F 30 in WSW 11.4 mph 17.4 mph 97% 0.05 in 0 W/m2
20:19 55.2 °F 54.3 °F 30 in West 8.3 mph 19.7 mph 97% 0.05 in 0 W/m2
20:24 55 °F 54.1 °F 30 in West 12.1 mph 19.7 mph 97% 0.05 in 0 W/m2
20:29 55 °F 54.1 °F 30 in WSW 8.3 mph 17.4 mph 97% 0.06 in 0 W/m2
20:34 55 °F 54.1 °F 30 in WSW 8.3 mph 19 mph 97% 0.06 in 0 W/m2
20:39 54.9 °F 54 °F 30 in WSW 13 mph 19 mph 97% 0.05 in 0 W/m2
20:44 54.9 °F 54 °F 30 in WSW 12.1 mph 18.3 mph 97% 0.05 in 0 W/m2
20:49 54.7 °F 54 °F 30.1 in WSW 13.6 mph 18.3 mph 97% 0.05 in 0 W/m2
20:54 54.7 °F 54 °F 30 in WSW 11.4 mph 19.7 mph 97% 0.06 in 0 W/m2
20:59 54.5 °F 53.8 °F 30 in WSW 14.5 mph 21.3 mph 97% 0.08 in 0 W/m2
21:04 54.5 °F 53.8 °F 30 in WSW 9.2 mph 21.3 mph 97% 0.11 in 0 W/m2
21:09 54.5 °F 53.8 °F 30 in WSW 9.8 mph 21.3 mph 97% 0.13 in 0 W/m2
21:14 54.5 °F 53.8 °F 30 in WSW 12.1 mph 21.3 mph 97% 0.14 in 0 W/m2
21:19 54.5 °F 53.8 °F 30.1 in SW 11.4 mph 21.3 mph 97% 0.15 in 0 W/m2
21:24 54.7 °F 54 °F 30.1 in SW 2.2 mph 18.3 mph 97% 0.18 in 0 W/m2
21:30 54.7 °F 54 °F 30 in SSW 9.2 mph 19 mph 97% 0.18 in 0 W/m2
21:36 54.7 °F 54 °F 30.1 in SW 0.7 mph 19 mph 97% 0.18 in 0 W/m2
21:41 54.7 °F 54 °F 30.1 in SW 0.7 mph 17.4 mph 97% 0.17 in 0 W/m2
21:46 54.5 °F 53.8 °F 30.1 in SSW 3.1 mph 6 mph 97% 0.17 in 0 W/m2
21:51 54.7 °F 54 °F 30.1 in SW 3.8 mph 6 mph 97% 0.15 in 0 W/m2
21:56 54.7 °F 54 °F 30.1 in SW 4.5 mph 7.6 mph 97% 0.13 in 0 W/m2
22:01 54.9 °F 54 °F 30.1 in SW 9.2 mph 11.4 mph 97% 0.11 in 0 W/m2
22:06 54.7 °F 54 °F 30.1 in West 6 mph 13.6 mph 97% 0.07 in 0 W/m2
22:11 54.5 °F 53.8 °F 30.1 in WNW 6.9 mph 13.6 mph 97% 0.06 in 0 W/m2
22:16 54.5 °F 53.8 °F 30.1 in West 6 mph 13.6 mph 97% 0.07 in 0 W/m2
22:21 54.5 °F 53.8 °F 30.1 in WSW 6.9 mph 13.6 mph 97% 0.08 in 0 W/m2
22:26 54.5 °F 53.8 °F 30.1 in WSW 8.3 mph 13.6 mph 97% 0.07 in 0 W/m2
22:31 54.5 °F 53.8 °F 30.1 in WSW 6.9 mph 15.9 mph 97% 0.06 in 0 W/m2
22:36 54.7 °F 54 °F 30.1 in WSW 8.3 mph 15.9 mph 97% 0.07 in 0 W/m2
22:41 54.9 °F 54 °F 30.1 in WSW 11.4 mph 15.9 mph 97% 0.09 in 0 W/m2
22:46 54.7 °F 54 °F 30.1 in WSW 6.9 mph 16.8 mph 97% 0.11 in 0 W/m2
22:51 54.9 °F 54 °F 30.1 in West 7.6 mph 17.4 mph 97% 0.11 in 0 W/m2
22:56 55 °F 54.1 °F 30.1 in WSW 9.8 mph 17.4 mph 97% 0.11 in 0 W/m2
23:01 55.4 °F 55 °F 30.1 in WSW 6.9 mph 15.9 mph 99% 0.11 in 0 W/m2
23:06 55.4 °F 55 °F 30.1 in WSW 4.5 mph 14.5 mph 99% 0.11 in 0 W/m2
23:11 55.4 °F 55 °F 30.1 in WSW 5.4 mph 11.4 mph 99% 0.11 in 0 W/m2
23:16 55.8 °F 55.6 °F 30.1 in SW 3.8 mph 9.8 mph 99% 0.07 in 0 W/m2
23:21 56.1 °F 55.9 °F 30.1 in SW 5.4 mph 9.2 mph 99% 0.05 in 0 W/m2
23:26 55.8 °F 55.6 °F 30.1 in WSW 9.2 mph 13 mph 99% 0.05 in 0 W/m2
23:31 55.4 °F 55 °F 30.1 in WSW 6 mph 13 mph 99% 0.05 in 0 W/m2
23:36 55.2 °F 54.3 °F 30.1 in SW 8.3 mph 13.6 mph 97% 0.04 in 0 W/m2
23:41 55.2 °F 54.3 °F 30.1 in SW 6 mph 15.2 mph 97% 0.01 in 0 W/m2
23:46 55.2 °F 54.3 °F 30.1 in WSW 9.8 mph 15.2 mph 97% 0 in 0 W/m2
23:51 55.2 °F 54.3 °F 30.1 in SW 9.2 mph 14.5 mph 97% 0 in 0 W/m2
23:56 55.2 °F 54.3 °F 30.1 in WSW 6.9 mph 15.9 mph 97% 0 in 0 W/m2
Northern Hawkes Bay. New Zealand Historic Data
Compliments of Weather Underground - 2 mb